Location: downtown San Diego
(32.7310°N, 117.1990°W)
Time: 22:45:15
(UTC-08:00)

Cosmos 2263 - Pass Details

Date: 12 July 2018
Orbit: 833 x 864 km, 70.9° (Epoch: 08 December)

Event Time Altitude Azimuth Distance (km) Brightness Sun altitude
Rises 20:52:30 0° 202° (SSW) 3,362 7.2 -10.6°
Reaches altitude 10° 20:54:55 10° 203° (SSW) 2,432 6.5 -11.0°
Maximum altitude 21:00:30 80° 291° (WNW) 849 4.3 -11.9°
Drops below altitude 10° 21:06:08 10° 18° (NNE) 2,453 6.9 -12.9°
Sets 21:08:35 0° 20° (NNE) 3,394 7.6 -13.3°
